This is the latest recevied weather packets stored in our database for station/object SR8NGO-1. If no packets are shown the sender has not sent any weather packets the latest 10 day(s).
| Time | Temp. | Humidity | Pressure | Rain* | Wind** | Luminosity | Snow |
|---|---|---|---|---|---|---|---|
| 1777352436 | 6.11° C | 84% | 1011.1 hPa | 136.91 mm | - | - | - |
| 1777352196 | 5° C | 84% | 1011 hPa | 136.91 mm | - | - | - |
| 1777351956 | 5° C | 85% | 1011 hPa | 135.89 mm | - | - | - |
| 1777351716 | 5° C | 88% | 1011 hPa | 135.89 mm | - | - | - |
| 1777351476 | 3.89° C | 88% | 1010.9 hPa | 135.89 mm | - | - | - |
| 1777351236 | 3.89° C | 87% | 1010.9 hPa | 134.87 mm | - | - | - |
| 1777350996 | 2.78° C | 87% | 1010.9 hPa | 134.87 mm | - | - | - |
| 1777350756 | 3.89° C | 88% | 1010.9 hPa | 134.87 mm | - | - | - |
| 1777350516 | 2.78° C | 88% | 1010.8 hPa | 134.11 mm | - | - | - |
| 1777350276 | 2.78° C | 89% | 1010.8 hPa | 134.11 mm | - | - | - |
| 1777350036 | 2.78° C | 88% | 1010.7 hPa | 134.11 mm | - | - | - |
| 1777349796 | 2.78° C | 88% | 1010.7 hPa | 133.1 mm | - | - | - |
| 1777349556 | 2.22° C | 88% | 1010.7 hPa | 133.1 mm | - | - | - |
| 1777349316 | 2.22° C | 88% | 1010.6 hPa | 132.08 mm | - | - | - |
| 1777349076 | 2.22° C | 88% | 1010.6 hPa | 132.08 mm | - | - | - |
| 1777348836 | 1.11° C | 87% | 1010.6 hPa | 131.06 mm | - | - | - |
| 1777348596 | 1.11° C | 86% | 1010.6 hPa | 130.05 mm | - | - | - |
| 1777348356 | 1.11° C | 86% | 1010.5 hPa | 129.03 mm | - | - | - |
| 1777348116 | 1.11° C | 86% | 1010.5 hPa | 127 mm | - | - | - |
| 1777347876 | 1.11° C | 85% | 1010.4 hPa | 125.98 mm | - | - | - |
| 1777347636 | 0° C | 85% | 1010.4 hPa | 125.98 mm | - | - | - |
| 1777347396 | 1.11° C | 85% | 1010.3 hPa | 124.97 mm | - | - | - |
| 1777347156 | 0° C | 85% | 1010.3 hPa | 124.97 mm | - | - | - |
| 1777346916 | 0° C | 84% | 1010.2 hPa | 124.97 mm | - | - | - |
| 1777346676 | 0° C | 84% | 1010.2 hPa | 124.97 mm | - | - | - |
* Rain latest hour (hover to see other rain measurements)
** Current wind speed in m/s (hover to see current wind gust speed)